| time (UTC) | temp F | wind direction | speed MPH | gust MPH | rain 1hr in | rain 24hr in | rain mn in | humidity % | barometer mb |
| 20260505230442 | 57 | 10 | 0.0 | 2.0 | 0.00 | 0.24 | 0.00 | 92 | 1013.2 |
| 20260505225935 | 57 | 10 | 0.0 | 0.0 | 0.00 | 0.24 | 0.00 | 92 | 1013.3 |
| 20260505225432 | 57 | 10 | 0.0 | 1.0 | 0.00 | 0.24 | 0.00 | 92 | 1013.3 |
| 20260505224941 | 57 | 10 | 0.0 | 2.0 | 0.00 | 0.24 | 0.00 | 91 | 1013.4 |
| 20260505224438 | 57 | 10 | 0.0 | 3.0 | 0.00 | 0.24 | 0.00 | 91 | 1013.4 |
| 20260505223954 | 57 | 10 | 1.0 | 3.0 | 0.00 | 0.24 | 0.00 | 91 | 1013.4 |
| 20260505223444 | 57 | 9 | 0.0 | 4.0 | 0.00 | 0.24 | 0.00 | 92 | 1013.5 |
| 20260505222940 | 57 | 9 | 1.0 | 4.0 | 0.00 | 0.24 | 0.00 | 92 | 1013.5 |
| 20260505222447 | 57 | 19 | 0.0 | 3.0 | 0.00 | 0.24 | 0.00 | 92 | 1013.5 |
| 20260505221946 | 57 | 16 | 1.0 | 4.0 | 0.00 | 0.24 | 0.00 | 92 | 1013.7 |
| 20260505221436 | 58 | 17 | 2.0 | 4.0 | 0.00 | 0.24 | 0.00 | 92 | 1013.7 |
| 20260505220934 | 58 | 5 | 1.0 | 4.0 | 0.00 | 0.24 | 0.00 | 92 | 1013.8 |
| 20260505220445 | 58 | 13 | 2.0 | 4.0 | 0.00 | 0.24 | 0.00 | 91 | 1013.8 |
| 20260505215942 | 58 | 14 | 0.0 | 3.0 | 0.00 | 0.24 | 0.00 | 91 | 1013.7 |
| 20260505215456 | 58 | 13 | 0.0 | 3.0 | 0.00 | 0.24 | 0.05 | 91 | 1013.8 |
| 20260505214946 | 58 | 13 | 1.0 | 4.0 | 0.00 | 0.24 | 0.05 | 91 | 1013.8 |
| 20260505214443 | 58 | 16 | 1.0 | 4.0 | 0.00 | 0.24 | 0.05 | 91 | 1013.8 |
| 20260505213952 | 58 | 360 | 0.0 | 2.0 | 0.00 | 0.24 | 0.05 | 91 | 1013.9 |
| 20260505213447 | 58 | 360 | 0.0 | 3.0 | 0.00 | 0.24 | 0.05 | 91 | 1014.0 |
| 20260505212943 | 58 | 355 | 1.0 | 5.0 | 0.00 | 0.24 | 0.05 | 91 | 1014.0 |
| 20260505212454 | 58 | 24 | 1.0 | 5.0 | 0.00 | 0.24 | 0.05 | 91 | 1014.0 |
| 20260505211942 | 58 | 19 | 1.0 | 4.0 | 0.00 | 0.24 | 0.05 | 91 | 1013.9 |
| 20260505211438 | 58 | 360 | 1.0 | 4.0 | 0.00 | 0.24 | 0.05 | 91 | 1014.0 |
| 20260505210948 | 58 | 360 | 1.0 | 4.0 | 0.00 | 0.24 | 0.05 | 91 | 1014.0 |
| 20260505210444 | 58 | 360 | 1.0 | 4.0 | 0.00 | 0.24 | 0.05 | 91 | 1014.0 |
| 20260505205933 | 58 | 348 | 2.0 | 4.0 | 0.00 | 0.24 | 0.05 | 90 | 1014.0 |
| 20260505205451 | 58 | 17 | 1.0 | 5.0 | 0.00 | 0.24 | 0.05 | 91 | 1014.0 |
| 20260505204947 | 58 | 5 | 2.0 | 5.0 | 0.00 | 0.24 | 0.05 | 90 | 1014.0 |
| 20260505204435 | 58 | 25 | 2.0 | 5.0 | 0.00 | 0.24 | 0.05 | 90 | 1014.0 |
| 20260505203947 | 58 | 30 | 2.0 | 5.0 | 0.00 | 0.24 | 0.05 | 90 | 1014.0 |
| 20260505203441 | 58 | 360 | 1.0 | 6.0 | 0.00 | 0.24 | 0.05 | 90 | 1014.1 |
| 20260505202933 | 58 | 24 | 2.0 | 6.0 | 0.00 | 0.24 | 0.05 | 90 | 1014.1 |
| 20260505202450 | 58 | 360 | 3.0 | 6.0 | 0.00 | 0.24 | 0.05 | 90 | 1014.1 |
| 20260505201944 | 58 | 5 | 2.0 | 5.0 | 0.00 | 0.24 | 0.05 | 91 | 1014.2 |
| 20260505201439 | 58 | 355 | 1.0 | 4.0 | 0.00 | 0.24 | 0.05 | 91 | 1014.1 |
| 20260505200957 | 58 | 32 | 2.0 | 4.0 | 0.00 | 0.24 | 0.05 | 90 | 1014.1 |
| 20260505200445 | 58 | 360 | 1.0 | 9.0 | 0.00 | 0.24 | 0.05 | 90 | 1014.1 |
| 20260505195943 | 58 | 34 | 2.0 | 9.0 | 0.00 | 0.24 | 0.05 | 90 | 1014.1 |
| 20260505195450 | 58 | 32 | 3.0 | 9.0 | 0.00 | 0.24 | 0.05 | 90 | 1014.1 |
| 20260505195008 | 58 | 22 | 3.0 | 9.0 | 0.00 | 0.24 | 0.05 | 90 | 1014.1 |
| 20260505194442 | 58 | 5 | 1.0 | 5.0 | 0.00 | 0.24 | 0.05 | 90 | 1014.1 |
| 20260505193933 | 58 | 17 | 2.0 | 4.0 | 0.00 | 0.24 | 0.05 | 90 | 1014.2 |
| 20260505193449 | 58 | 14 | 1.0 | 6.0 | 0.00 | 0.24 | 0.05 | 90 | 1014.2 |
| 20260505192936 | 58 | 355 | 2.0 | 6.0 | 0.00 | 0.24 | 0.05 | 90 | 1014.2 |
| 20260505192432 | 58 | 26 | 1.0 | 5.0 | 0.00 | 0.24 | 0.05 | 90 | 1014.1 |
| 20260505191950 | 58 | 34 | 1.0 | 4.0 | 0.00 | 0.24 | 0.05 | 90 | 1014.1 |
| 20260505191459 | 58 | 25 | 1.0 | 5.0 | 0.00 | 0.24 | 0.05 | 90 | 1014.1 |
| 20260505190936 | 58 | 15 | 2.0 | 4.0 | 0.00 | 0.24 | 0.05 | 90 | 1014.1 |
| 20260505190452 | 58 | 36 | 1.0 | 5.0 | 0.00 | 0.24 | 0.05 | 90 | 1014.0 |
| 20260505185939 | 57 | 42 | 1.0 | 5.0 | 0.00 | 0.24 | 0.05 | 90 | 1014.0 |
| 20260505185452 | 57 | 32 | 1.0 | 5.0 | 0.00 | 0.24 | 0.05 | 90 | 1013.9 |
| 20260505184948 | 57 | 24 | 1.0 | 6.0 | 0.00 | 0.24 | 0.05 | 91 | 1013.8 |
| 20260505184436 | 57 | 30 | 3.0 | 7.0 | 0.00 | 0.24 | 0.05 | 91 | 1013.9 |
| 20260505183932 | 57 | 38 | 1.0 | 7.0 | 0.00 | 0.24 | 0.05 | 91 | 1013.9 |
| 20260505183447 | 57 | 24 | 3.0 | 6.0 | 0.00 | 0.24 | 0.05 | 91 | 1013.9 |
| 20260505182939 | 57 | 24 | 2.0 | 6.0 | 0.00 | 0.24 | 0.05 | 91 | 1013.8 |
| 20260505182435 | 57 | 342 | 2.0 | 5.0 | 0.00 | 0.24 | 0.05 | 91 | 1013.8 |
| 20260505181952 | 57 | 42 | 1.0 | 6.0 | 0.00 | 0.24 | 0.05 | 91 | 1013.8 |
| 20260505181441 | 57 | 19 | 3.0 | 8.0 | 0.00 | 0.24 | 0.05 | 91 | 1013.8 |
| 20260505180939 | 57 | 9 | 4.0 | 9.0 | 0.00 | 0.24 | 0.05 | 91 | 1013.8 |
| 20260505180458 | 57 | 59 | 4.0 | 9.0 | 0.00 | 0.24 | 0.05 | 91 | 1013.8 |
| 20260505175940 | 57 | 13 | 3.0 | 9.0 | 0.00 | 0.24 | 0.05 | 91 | 1013.7 |
| 20260505175456 | 57 | 360 | 1.0 | 10.0 | 0.00 | 0.24 | 0.05 | 91 | 1013.7 |
| 20260505174931 | 57 | 66 | 4.0 | 10.0 | 0.00 | 0.24 | 0.05 | 91 | 1013.7 |
| 20260505174443 | 57 | 84 | 5.0 | 10.0 | 0.00 | 0.24 | 0.05 | 91 | 1013.6 |
| 20260505173941 | 58 | 59 | 1.0 | 9.0 | 0.00 | 0.24 | 0.05 | 91 | 1013.6 |
| 20260505173457 | 57 | 11 | 2.0 | 9.0 | 0.00 | 0.24 | 0.05 | 91 | 1013.7 |
| 20260505172946 | 58 | 24 | 3.0 | 8.0 | 0.00 | 0.24 | 0.05 | 91 | 1013.7 |
| 20260505172435 | 58 | 45 | 3.0 | 8.0 | 0.00 | 0.24 | 0.05 | 91 | 1013.8 |
| 20260505171952 | 58 | 360 | 1.0 | 8.0 | 0.00 | 0.24 | 0.05 | 91 | 1013.8 |
| 20260505171449 | 57 | 330 | 2.0 | 8.0 | 0.00 | 0.24 | 0.05 | 91 | 1013.8 |
| 20260505170946 | 57 | 5 | 3.0 | 9.0 | 0.00 | 0.24 | 0.05 | 91 | 1013.7 |
| 20260505170438 | 58 | 34 | 5.0 | 9.0 | 0.00 | 0.24 | 0.05 | 91 | 1013.7 |
| 20260505165954 | 58 | 5 | 2.0 | 10.0 | 0.00 | 0.24 | 0.05 | 91 | 1013.7 |
| 20260505165451 | 58 | 360 | 4.0 | 9.0 | 0.00 | 0.24 | 0.05 | 91 | 1013.7 |
| 20260505164940 | 58 | 14 | 4.0 | 7.0 | 0.00 | 0.24 | 0.05 | 91 | 1013.6 |
| 20260505164431 | 58 | 38 | 4.0 | 9.0 | 0.00 | 0.24 | 0.05 | 91 | 1013.7 |
| 20260505163947 | 58 | 5 | 3.0 | 9.0 | 0.00 | 0.24 | 0.05 | 91 | 1013.7 |
| 20260505163445 | 58 | 13 | 2.0 | 9.0 | 0.00 | 0.24 | 0.05 | 91 | 1013.7 |
| 20260505162933 | 58 | 11 | 3.0 | 8.0 | 0.00 | 0.24 | 0.05 | 91 | 1013.7 |
| 20260505162509 | 58 | 40 | 3.0 | 8.0 | 0.00 | 0.24 | 0.05 | 91 | 1013.7 |
| 20260505161944 | 58 | 32 | 3.0 | 12.0 | 0.00 | 0.24 | 0.05 | 90 | 1013.7 |
| 20260505161433 | 58 | 68 | 5.0 | 12.0 | 0.00 | 0.24 | 0.05 | 90 | 1013.7 |
| 20260505160950 | 59 | 46 | 4.0 | 10.0 | 0.00 | 0.24 | 0.05 | 90 | 1013.7 |
| 20260505160438 | 59 | 15 | 5.0 | 10.0 | 0.00 | 0.24 | 0.05 | 90 | 1013.8 |
| 20260505152950 | 59 | 49 | 3.0 | 6.0 | 0.00 | 0.24 | 0.05 | 90 | 1013.9 |
| 20260505152441 | 59 | 40 | 2.0 | 7.0 | 0.00 | 0.24 | 0.05 | 90 | 1013.9 |
| 20260505151931 | 59 | 34 | 3.0 | 7.0 | 0.00 | 0.24 | 0.05 | 90 | 1014.0 |
| 20260505151448 | 59 | 5 | 3.0 | 7.0 | 0.00 | 0.24 | 0.05 | 89 | 1014.0 |
| 20260505150944 | 59 | 5 | 2.0 | 6.0 | 0.00 | 0.24 | 0.05 | 90 | 1014.0 |
| 20260505150433 | 59 | 44 | 2.0 | 6.0 | 0.00 | 0.24 | 0.05 | 90 | 1013.9 |
| 20260505140454 | 60 | 360 | 3.0 | 9.0 | 0.00 | 0.24 | 0.05 | 86 | 1014.1 |
| 20260505124930 | 60 | 58 | 4.0 | 8.0 | 0.00 | 0.24 | 0.05 | 80 | 1014.6 |
| 20260505124448 | 60 | 50 | 3.0 | 6.0 | 0.00 | 0.24 | 0.05 | 80 | 1014.6 |
| 20260505123956 | 60 | 51 | 2.0 | 6.0 | 0.00 | 0.24 | 0.05 | 81 | 1014.6 |
| 20260505123448 | 60 | 57 | 2.0 | 10.0 | 0.00 | 0.24 | 0.05 | 81 | 1014.6 |
| 20260505122945 | 61 | 57 | 4.0 | 10.0 | 0.00 | 0.24 | 0.05 | 81 | 1014.6 |
| 20260505122433 | 61 | 49 | 3.0 | 5.0 | 0.00 | 0.24 | 0.05 | 82 | 1014.7 |
| 20260505121947 | 61 | 59 | 3.0 | 6.0 | 0.00 | 0.24 | 0.05 | 82 | 1014.7 |
| 20260505121442 | 61 | 89 | 3.0 | 6.0 | 0.00 | 0.24 | 0.05 | 82 | 1014.7 |
| 20260505120951 | 61 | 82 | 2.0 | 6.0 | 0.00 | 0.24 | 0.05 | 82 | 1014.7 |
| 20260505120507 | 61 | 93 | 1.0 | 5.0 | 0.00 | 0.24 | 0.05 | 82 | 1014.7 |
| 20260505115942 | 61 | 90 | 2.0 | 5.0 | 0.00 | 0.24 | 0.05 | 81 | 1014.6 |
| 20260505115435 | 61 | 66 | 3.0 | 6.0 | 0.00 | 0.24 | 0.05 | 80 | 1014.7 |
| 20260505115008 | 61 | 58 | 2.0 | 6.0 | 0.00 | 0.24 | 0.05 | 80 | 1014.8 |
| 20260505114437 | 61 | 66 | 2.0 | 4.0 | 0.00 | 0.24 | 0.05 | 80 | 1014.8 |
| 20260505113933 | 61 | 84 | 2.0 | 5.0 | 0.00 | 0.24 | 0.05 | 80 | 1014.9 |
| 20260505113436 | 61 | 72 | 3.0 | 5.0 | 0.00 | 0.24 | 0.05 | 80 | 1014.8 |
| 20260505112950 | 61 | 59 | 2.0 | 6.0 | 0.00 | 0.24 | 0.05 | 79 | 1014.8 |
| 20260505112445 | 61 | 41 | 2.0 | 6.0 | 0.00 | 0.24 | 0.05 | 79 | 1014.8 |
| 20260505111955 | 61 | 58 | 3.0 | 5.0 | 0.04 | 0.24 | 0.05 | 80 | 1014.7 |
| 20260505111449 | 61 | 79 | 2.0 | 5.0 | 0.04 | 0.24 | 0.05 | 81 | 1014.7 |
| 20260505110945 | 61 | 98 | 1.0 | 4.0 | 0.04 | 0.24 | 0.05 | 82 | 1014.6 |
| 20260505110433 | 61 | 94 | 0.0 | 4.0 | 0.04 | 0.24 | 0.05 | 82 | 1014.7 |
| 20260505101932 | 61 | 80 | 2.0 | 6.0 | 0.12 | 0.20 | 0.04 | 83 | 1015.1 |
| 20260505101448 | 61 | 88 | 2.0 | 5.0 | 0.12 | 0.20 | 0.04 | 83 | 1015.1 |
| 20260505100945 | 61 | 82 | 1.0 | 3.0 | 0.12 | 0.20 | 0.04 | 81 | 1015.1 |
| 20260505100433 | 61 | 74 | 0.0 | 3.0 | 0.12 | 0.20 | 0.04 | 81 | 1015.2 |
| 20260505100004 | 61 | 72 | 1.0 | 3.0 | 0.12 | 0.20 | 0.04 | 80 | 1015.1 |
| 20260505095442 | 61 | 72 | 0.0 | 1.0 | 0.12 | 0.16 | 0.03 | 79 | 1015.1 |
| 20260505094939 | 61 | 72 | 0.0 | 2.0 | 0.12 | 0.16 | 0.03 | 78 | 1015.1 |
| 20260505094447 | 62 | 72 | 1.0 | 2.0 | 0.12 | 0.12 | 0.02 | 76 | 1015.1 |
| 20260505093943 | 62 | 72 | 0.0 | 3.0 | 0.12 | 0.12 | 0.02 | 77 | 1015.0 |
| 20260505093432 | 62 | 72 | 0.0 | 3.0 | 0.12 | 0.12 | 0.02 | 76 | 1014.9 |
| 20260505092946 | 62 | 67 | 1.0 | 3.0 | 0.08 | 0.08 | 0.02 | 76 | 1014.9 |
| 20260505092442 | 62 | 66 | 1.0 | 3.0 | 0.08 | 0.08 | 0.02 | 76 | 1014.9 |
| 20260505091932 | 62 | 67 | 0.0 | 2.0 | 0.08 | 0.08 | 0.02 | 77 | 1014.9 |
| 20260505091449 | 62 | 67 | 0.0 | 2.0 | 0.08 | 0.08 | 0.02 | 76 | 1014.9 |
| 20260505091006 | 62 | 67 | 2.0 | 2.0 | 0.08 | 0.08 | 0.02 | 74 | 1014.9 |
| 20260505090454 | 63 | 66 | 0.0 | 1.0 | 0.08 | 0.08 | 0.02 | 74 | 1014.9 |
| 20260505085949 | 63 | 66 | 0.0 | 0.0 | 0.04 | 0.04 | 0.01 | 74 | 1014.9 |
| 20260505085505 | 63 | 66 | 0.0 | 0.0 | 0.04 | 0.04 | 0.01 | 73 | 1014.9 |
| 20260505085001 | 62 | 66 | 0.0 | 0.0 | 0.04 | 0.04 | 0.01 | 72 | 1015.0 |
| 20260505084455 | 62 | 66 | 0.0 | 1.0 | 0.00 | 0.00 | 0.00 | 73 | 1015.0 |
| 20260505083942 | 62 | 66 | 0.0 | 4.0 | 0.00 | 0.00 | 0.00 | 72 | 1014.9 |
| 20260505083439 | 62 | 66 | 1.0 | 5.0 | 0.00 | 0.00 | 0.00 | 72 | 1014.8 |
| 20260505082950 | 62 | 95 | 2.0 | 5.0 | 0.00 | 0.00 | 0.00 | 73 | 1014.8 |
| 20260505082443 | 62 | 103 | 2.0 | 4.0 | 0.00 | 0.00 | 0.00 | 76 | 1014.9 |
| 20260505081932 | 62 | 87 | 1.0 | 3.0 | 0.00 | 0.00 | 0.00 | 77 | 1014.8 |
| 20260505081447 | 62 | 90 | 2.0 | 3.0 | 0.00 | 0.00 | 0.00 | 77 | 1014.9 |
| 20260505080936 | 62 | 84 | 1.0 | 3.0 | 0.00 | 0.00 | 0.00 | 79 | 1014.9 |
| 20260505080433 | 62 | 91 | 1.0 | 3.0 | 0.00 | 0.00 | 0.00 | 80 | 1015.0 |
| 20260505075942 | 62 | 84 | 1.0 | 3.0 | 0.00 | 0.00 | 0.00 | 81 | 1015.0 |
| 20260505075430 | 62 | 61 | 1.0 | 3.0 | 0.00 | 0.00 | 0.00 | 81 | 1014.9 |
| 20260505074947 | 62 | 131 | 1.0 | 3.0 | 0.00 | 0.00 | 0.00 | 83 | 1014.9 |
| 20260505074442 | 62 | 134 | 1.0 | 3.0 | 0.00 | 0.00 | 0.00 | 84 | 1015.0 |
| 20260505073948 | 62 | 138 | 0.0 | 2.0 | 0.00 | 0.00 | 0.00 | 85 | 1015.0 |
| 20260505073437 | 62 | 155 | 0.0 | 3.0 | 0.00 | 0.00 | 0.00 | 86 | 1014.9 |
| 20260505072953 | 62 | 155 | 0.0 | 5.0 | 0.00 | 0.00 | 0.00 | 86 | 1014.9 |
| 20260505072448 | 62 | 155 | 2.0 | 7.0 | 0.00 | 0.00 | 0.00 | 87 | 1014.8 |
| 20260505071938 | 62 | 101 | 2.0 | 7.0 | 0.00 | 0.00 | 0.00 | 88 | 1014.7 |
| 20260505071452 | 62 | 96 | 2.0 | 6.0 | 0.00 | 0.00 | 0.00 | 88 | 1014.7 |
| 20260505070942 | 62 | 98 | 2.0 | 6.0 | 0.00 | 0.00 | 0.00 | 88 | 1014.7 |
| 20260505070440 | 62 | 97 | 1.0 | 3.0 | 0.00 | 0.00 | 0.00 | 88 | 1014.7 |
| 20260505065954 | 62 | 94 | 0.0 | 4.0 | 0.00 | 0.00 | 0.00 | 88 | 1014.6 |
| 20260505065442 | 62 | 87 | 2.0 | 6.0 | 0.00 | 0.00 | 0.00 | 88 | 1014.6 |
| 20260505064930 | 62 | 88 | 2.0 | 5.0 | 0.00 | 0.00 | 0.00 | 88 | 1014.5 |
| 20260505064446 | 62 | 97 | 2.0 | 7.0 | 0.00 | 0.00 | 0.00 | 88 | 1014.4 |
| 20260505063943 | 62 | 94 | 2.0 | 8.0 | 0.00 | 0.00 | 0.00 | 88 | 1014.4 |
| 20260505063431 | 62 | 65 | 3.0 | 8.0 | 0.00 | 0.00 | 0.00 | 88 | 1014.3 |
| 20260505063004 | 62 | 97 | 2.0 | 6.0 | 0.00 | 0.00 | 0.00 | 88 | 1014.2 |
| 20260505062440 | 62 | 79 | 2.0 | 7.0 | 0.00 | 0.00 | 0.00 | 89 | 1014.2 |
| 20260505061956 | 62 | 83 | 1.0 | 7.0 | 0.00 | 0.00 | 0.00 | 89 | 1014.2 |
| 20260505061506 | 61 | 57 | 1.0 | 6.0 | 0.00 | 0.00 | 0.00 | 89 | 1014.2 |
| 20260505060934 | 61 | 65 | 3.0 | 6.0 | 0.00 | 0.00 | 0.00 | 89 | 1014.2 |
| 20260505060516 | 61 | 44 | 2.0 | 5.0 | 0.00 | 0.00 | 0.00 | 90 | 1014.2 |
| 20260505055942 | 61 | 37 | 2.0 | 5.0 | 0.00 | 0.00 | 0.00 | 90 | 1014.2 |
| 20260505055431 | 61 | 76 | 0.0 | 4.0 | 0.00 | 0.00 | 0.00 | 90 | 1014.2 |
| 20260505054946 | 61 | 74 | 1.0 | 4.0 | 0.00 | 0.00 | 0.00 | 90 | 1014.2 |
| 20260505054442 | 61 | 81 | 1.0 | 3.0 | 0.00 | 0.00 | 0.00 | 91 | 1014.2 |
| 20260505053933 | 61 | 42 | 1.0 | 5.0 | 0.00 | 0.00 | 0.00 | 91 | 1014.0 |
| 20260505053510 | 61 | 31 | 2.0 | 5.0 | 0.00 | 0.00 | 0.00 | 91 | 1013.9 |
| 20260505052944 | 61 | 74 | 3.0 | 6.0 | 0.00 | 0.00 | 0.00 | 92 | 1013.9 |
| 20260505052440 | 61 | 62 | 4.0 | 6.0 | 0.00 | 0.00 | 0.00 | 92 | 1014.0 |
| 20260505052015 | 61 | 64 | 1.0 | 4.0 | 0.00 | 0.00 | 0.00 | 92 | 1013.9 |
| 20260505051444 | 60 | 49 | 2.0 | 4.0 | 0.00 | 0.00 | 0.00 | 92 | 1013.9 |
| 20260505050937 | 60 | 85 | 1.0 | 3.0 | 0.00 | 0.00 | 0.00 | 92 | 1014.0 |
| 20260505050512 | 60 | 67 | 0.0 | 7.0 | 0.00 | 0.00 | 0.00 | 92 | 1014.0 |
| 20260505041440 | 59 | 360 | 1.0 | 6.0 | 0.00 | 0.00 | 0.00 | 92 | 1013.8 |
| 20260505040948 | 60 | 56 | 2.0 | 6.0 | 0.00 | 0.00 | 0.00 | 92 | 1013.8 |
| 20260505040503 | 59 | 26 | 0.0 | 6.0 | 0.00 | 0.00 | 0.00 | 92 | 1013.8 |
| 20260505035938 | 59 | 47 | 4.0 | 6.0 | 0.00 | 0.00 | 0.00 | 92 | 1013.8 |
| 20260505035447 | 59 | 40 | 2.0 | 5.0 | 0.00 | 0.00 | 0.00 | 92 | 1013.9 |
| 20260505034942 | 59 | 5 | 0.0 | 4.0 | 0.00 | 0.00 | 0.00 | 91 | 1013.9 |
| 20260505034430 | 59 | 5 | 2.0 | 5.0 | 0.00 | 0.00 | 0.00 | 91 | 1013.8 |
| 20260505033947 | 59 | 32 | 1.0 | 5.0 | 0.00 | 0.00 | 0.00 | 91 | 1013.8 |
| 20260505033437 | 59 | 29 | 1.0 | 4.0 | 0.00 | 0.00 | 0.00 | 91 | 1013.9 |
| 20260505032931 | 59 | 42 | 2.0 | 4.0 | 0.00 | 0.00 | 0.00 | 91 | 1013.9 |
| 20260505032508 | 59 | 30 | 0.0 | 3.0 | 0.00 | 0.00 | 0.00 | 90 | 1013.9 |
| 20260505031943 | 59 | 27 | 1.0 | 4.0 | 0.00 | 0.00 | 0.00 | 90 | 1013.8 |
| 20260505031431 | 59 | 65 | 1.0 | 4.0 | 0.00 | 0.00 | 0.00 | 89 | 1013.9 |
| 20260505030947 | 59 | 48 | 2.0 | 4.0 | 0.00 | 0.00 | 0.00 | 89 | 1013.9 |
| 20260505030438 | 59 | 19 | 1.0 | 4.0 | 0.00 | 0.00 | 0.00 | 88 | 1013.9 |
| 20260505025955 | 59 | 53 | 1.0 | 4.0 | 0.00 | 0.00 | 0.00 | 87 | 1013.9 |
| 20260505025450 | 59 | 19 | 1.0 | 4.0 | 0.00 | 0.00 | 0.00 | 86 | 1013.9 |
| 20260505024938 | 59 | 11 | 1.0 | 4.0 | 0.00 | 0.00 | 0.00 | 86 | 1014.0 |
| 20260505024434 | 59 | 22 | 1.0 | 4.0 | 0.00 | 0.00 | 0.00 | 86 | 1014.1 |
| 20260505024008 | 59 | 34 | 0.0 | 5.0 | 0.00 | 0.00 | 0.00 | 86 | 1014.2 |
| 20260505023435 | 59 | 34 | 2.0 | 5.0 | 0.00 | 0.00 | 0.00 | 86 | 1014.1 |
| 20260505022954 | 59 | 56 | 1.0 | 4.0 | 0.00 | 0.00 | 0.00 | 85 | 1014.2 |
| 20260505022448 | 59 | 56 | 1.0 | 4.0 | 0.00 | 0.00 | 0.00 | 85 | 1014.2 |
| 20260505021934 | 59 | 49 | 1.0 | 4.0 | 0.00 | 0.00 | 0.00 | 85 | 1014.2 |
| 20260505021431 | 59 | 38 | 1.0 | 5.0 | 0.00 | 0.00 | 0.00 | 85 | 1014.3 |
| 20260505020940 | 59 | 49 | 0.0 | 3.0 | 0.00 | 0.00 | 0.00 | 85 | 1014.4 |
| 20260505020456 | 59 | 41 | 0.0 | 2.0 | 0.00 | 0.00 | 0.00 | 85 | 1014.4 |
| 20260505015945 | 59 | 36 | 0.0 | 2.0 | 0.00 | 0.00 | 0.00 | 85 | 1014.5 |
| 20260505015442 | 59 | 36 | 0.0 | 4.0 | 0.00 | 0.00 | 0.00 | 85 | 1014.5 |
| 20260505014952 | 58 | 34 | 1.0 | 5.0 | 0.00 | 0.00 | 0.00 | 85 | 1014.5 |
| 20260505014507 | 58 | 32 | 0.0 | 4.0 | 0.00 | 0.00 | 0.00 | 85 | 1014.6 |
| 20260505014016 | 58 | 32 | 1.0 | 4.0 | 0.00 | 0.00 | 0.00 | 85 | 1014.6 |
| 20260505013445 | 58 | 32 | 1.0 | 3.0 | 0.00 | 0.00 | 0.00 | 84 | 1014.6 |
| 20260505012937 | 58 | 32 | 0.0 | 4.0 | 0.00 | 0.00 | 0.00 | 84 | 1014.6 |
| 20260505012452 | 58 | 18 | 1.0 | 4.0 | 0.00 | 0.00 | 0.00 | 84 | 1014.7 |
| 20260505011951 | 58 | 23 | 1.0 | 3.0 | 0.00 | 0.00 | 0.00 | 84 | 1014.7 |
| 20260505011438 | 58 | 26 | 1.0 | 3.0 | 0.00 | 0.00 | 0.00 | 83 | 1014.7 |
| 20260505010953 | 59 | 31 | 0.0 | 4.0 | 0.00 | 0.00 | 0.00 | 83 | 1014.6 |
| 20260505010446 | 59 | 32 | 1.0 | 4.0 | 0.00 | 0.00 | 0.00 | 82 | 1014.7 |
| 20260505010017 | 59 | 36 | 1.0 | 4.0 | 0.00 | 0.00 | 0.00 | 82 | 1014.8 |
| 20260505005444 | 59 | 28 | 0.0 | 3.0 | 0.00 | 0.00 | 0.00 | 81 | 1014.8 |
| 20260505004936 | 59 | 49 | 1.0 | 3.0 | 0.00 | 0.00 | 0.00 | 80 | 1015.0 |
| 20260505004444 | 59 | 51 | 1.0 | 2.0 | 0.00 | 0.00 | 0.00 | 79 | 1015.1 |
| 20260505003936 | 59 | 52 | 0.0 | 2.0 | 0.00 | 0.00 | 0.00 | 79 | 1015.2 |
| 20260505003451 | 59 | 53 | 1.0 | 2.0 | 0.00 | 0.00 | 0.00 | 78 | 1015.3 |
| 20260505002937 | 59 | 54 | 0.0 | 2.0 | 0.00 | 0.00 | 0.00 | 79 | 1015.4 |
| 20260505002434 | 59 | 54 | 0.0 | 1.0 | 0.00 | 0.00 | 0.00 | 78 | 1015.4 |
| 20260505001938 | 59 | 54 | 0.0 | 2.0 | 0.00 | 0.00 | 0.00 | 78 | 1015.4 |
| 20260505001434 | 59 | 54 | 0.0 | 2.0 | 0.00 | 0.00 | 0.00 | 78 | 1015.4 |
| 20260505000948 | 59 | 54 | 0.0 | 2.0 | 0.00 | 0.00 | 0.00 | 78 | 1015.4 |
| 20260505000435 | 59 | 54 | 0.0 | 2.0 | 0.00 | 0.00 | 0.00 | 77 | 1015.5 |
| 20260504235948 | 59 | 51 | 0.0 | 2.0 | 0.00 | 0.00 | 0.00 | 77 | 1015.5 |
| 20260504235446 | 59 | 51 | 0.0 | 2.0 | 0.00 | 0.00 | 0.00 | 76 | 1015.5 |
| 20260504234931 | 60 | 51 | 0.0 | 1.0 | 0.00 | 0.00 | 0.00 | 76 | 1015.5 |
| 20260504234446 | 60 | 51 | 0.0 | 0.0 | 0.00 | 0.00 | 0.00 | 76 | 1015.6 |
| 20260504233934 | 60 | 51 | 0.0 | 0.0 | 0.00 | 0.00 | 0.00 | 75 | 1015.7 |
| 20260504233430 | 60 | 52 | 0.0 | 2.0 | 0.00 | 0.00 | 0.00 | 75 | 1015.8 |
| 20260504233002 | 60 | 51 | 0.0 | 2.0 | 0.00 | 0.00 | 0.00 | 75 | 1015.8 |
| 20260504232431 | 60 | 51 | 0.0 | 2.0 | 0.00 | 0.00 | 0.00 | 75 | 1015.9 |
| 20260504231945 | 60 | 49 | 0.0 | 2.0 | 0.00 | 0.00 | 0.00 | 75 | 1015.9 |
| 20260504231500 | 60 | 49 | 1.0 | 2.0 | 0.00 | 0.00 | 0.00 | 74 | 1015.9 |
| 20260504230956 | 60 | 49 | 0.0 | 2.0 | 0.00 | 0.00 | 0.00 | 74 | 1015.9 |